Location: Waco, TX
(31.5480°N, 97.1670°W)
Time: 03:02:19
(UTC-05:00)

ISS - Pass Details

Date: 15 September 2017
Orbit: 401 x 407 km, 51.6° (Epoch: 22 September)

Event Time Altitude Azimuth Distance (km) Brightness Sun altitude
Rises 07:39:34 0° 325° (NW) 2,330 -0.3 4.8°
Reaches altitude 10° 07:41:50 10° 337° (NNW) 1,466 -1.2 5.3°
Maximum altitude 07:44:45 29° 39° (NE) 777 -1.8 5.9°
Drops below altitude 10° 07:47:40 10° 102° (ESE) 1,459 1.2 6.6°
Sets 07:49:54 0° 114° (ESE) 2,315 1.4 7.0°
